METLOCID,DATE_TIME,AVG_RH,STDDEV_RH,MIN_RH,MAX_RH,N_RH
HOEM,11/1/87,45.70087336,6.982603642,26.8,63.1,229
HOEM,12/1/87,52.93145161,12.63621864,27.4,78.8,372
HOEM,1/1/88,58.4061828,11.21148282,27.2,85,372
HOEM,2/1/88,60.86522989,14.64231652,23.6,88.2,348
HOEM,3/1/88,71.00645161,12.86566132,32.2,87.7,372
HOEM,4/1/88,71.90138889,13.58970499,31.8,87.6,360
HOEM,5/1/88,66.39005376,16.45933265,34.4,86.5,372
HOEM,6/1/88,60.49694444,16.34170346,25,80.9,360
HOEM,7/1/88,61.5,13.27483483,23.7,79,372
HOEM,8/1/88,53.63333333,17.36192869,27,78.3,372
HOEM,9/1/88,63.34333333,13.62230516,25.2,78.2,360
HOEM,10/1/88,55.43198925,13.9216066,22.9,74.9,372
HOEM,11/1/88,57.56555556,8.37414992,24.5,72.9,360
HOEM,12/1/88,55.07304348,7.709550837,26.9,69.9,230
HOEM,1/1/89,59.47903226,6.800837876,33.5,70.2,186
HOEM,2/1/89,60.28571429,5.204457851,43.7,69.6,168
HOEM,3/1/89,57.84032258,6.130282644,32.2,65.3,186
HOEM,4/1/89,57.65,8.501478675,34.4,68.6,180
HOEM,5/1/89,57.94193548,6.161525304,43.2,66.5,186
HOEM,6/1/89,58.46,4.34520991,44.2,62.8,180
HOEM,7/1/89,55.03548387,7.326665776,37.4,65,186
HOEM,8/1/89,56.82688172,6.490302784,29.4,64.6,186
HOEM,9/1/89,55.07333333,8.619107006,33.9,65.8,180
HOEM,10/1/89,51.89784946,8.533355583,32.2,65.7,186
HOEM,11/1/89,54.06166667,6.08170877,39.1,65.8,180
HOEM,12/1/89,56.61290323,5.9099225,40.6,66.9,186
HOEM,1/1/90,57.44946237,5.373551318,44.4,66.5,186
HOEM,2/1/90,58.82559524,5.623549682,44.5,68.8,168
HOEM,3/1/90,58.90215054,6.699116174,31.5,68.3,186
HOEM,4/1/90,55.94333333,5.911517969,44.6,63.3,180
HOEM,5/1/90,59.38010753,4.648415247,44.5,63.9,186
HOEM,6/1/90,55.96444444,5.468749433,41.5,62.1,180
HOEM,7/1/90,59.38709677,3.9316519,35.6,62.5,186
HOEM,8/1/90,56.55860215,6.511674023,37.8,62.3,186
HOEM,9/1/90,56.095,7.019750867,34.7,62.1,180
HOEM,10/1/90,54.10806452,6.206778293,29.6,62.5,186
HOEM,11/1/90,50.95388889,5.371426201,35.5,62.8,180
HOEM,12/1/90,49.95806452,5.889731285,33.5,61.9,186
HOEM,1/1/91,50.95967742,5.738531492,32.3,61.1,186
HOEM,2/1/91,49.93214286,5.479076383,35.8,58.2,168
HOEM,3/1/91,50.34086022,5.44573697,34,58.6,186
HOEM,4/1/91,53.43611111,5.360071332,42.2,59.8,180
HOEM,5/1/91,52.17311828,5.990652896,38.3,59.2,186
HOEM,6/1/91,51.40055556,4.952145263,38.6,57.8,180
HOEM,7/1/91,51.14569892,4.180302303,38.4,57.3,186
HOEM,8/1/91,50.08763441,4.344155166,39.8,55.4,186
HOEM,9/1/91,44.86833333,6.106882965,33.8,54.3,180
HOEM,10/1/91,47.40806452,5.978609575,32.3,57,186
HOEM,11/1/91,39.06444444,5.624682459,29,53.7,180
HOEM,12/1/91,41.78763441,5.237103366,27,52.7,186
HOEM,1/1/92,44.72204301,7.18084525,25.2,53.9,186
HOEM,2/1/92,46.69425287,5.310462055,29.2,56.3,174
HOEM,3/1/92,46.50913978,7.811894764,25.8,57.1,186
HOEM,4/1/92,46.88055556,3.636686091,37,52.6,180
HOEM,5/1/92,42.25053763,2.976198324,31.3,46.2,186
HOEM,6/1/92,38.67944444,3.533284626,29.9,43.4,180
HOEM,7/1/92,38.3016129,4.766442107,25.1,45.3,186
HOEM,8/1/92,37.66397849,5.074370501,24.7,45,186
HOEM,9/1/92,35.91833333,5.45419192,21.8,46.6,180
HOEM,10/1/92,37.9344086,4.489398795,26.8,47.6,186
HOEM,11/1/92,31.87777778,4.147645971,21.7,43.1,180
HOEM,12/1/92,55.36918919,23.68717714,25.9,102.7,185
HOEM,1/1/93,81.12849462,14.96540136,28,101.1,186
HOEM,2/1/93,78.86785714,13.8368523,42.2,97.6,168
HOEM,3/1/93,70.44946237,13.67836819,40.6,94.2,186
HOEM,4/1/93,56.36111111,10.35132782,36.5,75.7,180
HOEM,5/1/93,53.04516129,5.354695159,35.9,59.3,186
HOEM,6/1/93,47.36388889,7.845055119,31.2,59.3,180
HOEM,7/1/93,45.16827957,8.913858888,28.8,57.1,186
HOEM,8/1/93,45.69623656,6.567869112,26.6,55.4,186
HOEM,9/1/93,46.60333333,6.883604519,27.4,55.1,180
HOEM,10/1/93,42.52365591,7.093558522,26.1,53.2,186
HOEM,11/1/93,44.69388889,4.826314785,30.2,52.1,180
HOEM,12/1/93,71.59599267,15.87656929,25.2,96.64,1909
HOEM,1/1/94,62.8356628,14.55820835,30.4,93.84,2414
HOEM,2/1/94,78.6278125,14.8398255,43.71,99.99,224
HOEM,3/1/94,78.88145161,13.32678565,36.21,95.95,248
HOEM,4/1/94,76.64629167,17.71272578,30.78,99.99,240
HOEM,5/1/94,77.69883065,14.42279855,34.94,95.71,248
HOEM,6/1/94,69.03595833,19.43011056,30.87,97.49,240
HOEM,7/1/94,71.07495968,17.68364456,22.52,96.81,248
HOEM,8/1/94,70.11028226,16.41105689,30.58,90.2,248
HOEM,9/1/94,72.296125,12.57255211,27.5,86.7,240
HOEM,10/1/94,72.49854839,18.46122112,28.18,97.47,248
HOEM,11/1/94,74.92170949,10.9449588,30.2,92.77,1012
HOEM,12/1/94,65.38915323,15.3152081,30.3,97.64,2232
HOEM,1/1/95,70.10575594,12.93613233,26.1,96.58,2229
HOEM,2/1/95,67.06225694,22.38768251,19.24,100,2016
HOEM,3/1/95,78.94199373,13.95457994,33.41,98.8,2232
HOEM,4/1/95,78.26974074,17.82298927,32.42,96.69,2160
HOEM,5/1/95,75.05671147,18.80932908,28.92,94.5,2232
HOEM,6/1/95,65.4717037,20.57176506,25.43,93.82,2160
HOEM,7/1/95,72.41060036,16.38351619,26.1,95.17,2232
HOEM,8/1/95,63.52914427,20.21838183,24.3,90.35,2232
HOEM,9/1/95,68.59731019,17.96705852,26.03,92.37,2160
HOEM,10/1/95,62.70230287,16.15344125,28.3,94.76,2232
HOEM,11/1/95,48.64982421,16.27739542,20.36,93.56,1991
HOEM,1/1/96,40.77213333,14.72237884,23.33,86.45,675
HOEM,2/1/96,61.7430819,13.33578767,26.82,95.05,2784
HOEM,3/1/96,74.22357863,21.5878085,19.95,97.85,2976
HOEM,4/1/96,73.15014583,21.71603043,25.87,99.32,2880
HOEM,5/1/96,75.20272849,16.04552065,29.8,93.96,2976
HOEM,6/1/96,69.95142708,19.30914333,26.67,90.12,2880
HOEM,7/1/96,59.9455578,18.92229749,26.36,87.4,2976
HOEM,8/1/96,62.81061492,20.67169206,23.14,92.22,2976
HOEM,9/1/96,69.35086806,17.02170633,31.13,91.91,2880
HOEM,10/1/96,64.54551075,16.05160254,28.03,90.59,2976
HOEM,11/1/96,57.61479167,15.73233769,18.29,96.51,2880
HOEM,12/1/96,58.21623656,15.13552149,22.8,100,2976
HOEM,1/1/97,69.20870881,15.97844713,24.04,100,2974
HOEM,2/1/97,65.38240327,16.7139471,25.02,95.52,2688
HOEM,3/1/97,77.36148858,12.67680927,29.92,93.53,2976
HOEM,4/1/97,75.71102431,15.85023427,28.67,95.61,2880
HOEM,5/1/97,59.51043419,21.55102525,23.82,93.2,2948
HOEM,6/1/97,63.63865278,23.33371405,25.91,93.23,2880
HOEM,7/1/97,63.40057666,16.29469476,30.84,91.74,2948
HOEM,8/1/97,65.89653226,14.58297446,28.78,88.18,2976
HOEM,9/1/97,65.12986111,17.11343483,25.17,96.98,2880
HOEM,10/1/97,60.0962164,21.64803847,24.63,95.77,2976
HOEM,11/1/97,51.97705289,20.82059545,21.17,98.95,2874
HOEM,12/1/97,75.36418683,12.91115908,31.09,99.46,2976
HOEM,1/1/98,74.95727823,13.7980908,28.31,98.8,2976
HOEM,2/1/98,75.8355692,18.80263203,31.38,100,2688
HOEM,3/1/98,75.46780529,17.00904411,36.21,97.71,2948
HOEM,4/1/98,73.45933333,17.93242021,27.25,94.47,2880
HOEM,5/1/98,72.03577621,19.39514135,27.63,94.75,2976
HOEM,6/1/98,67.80252778,22.53742662,24.71,99.01,2880
HOEM,7/1/98,69.40190188,20.04394029,26.51,95.17,2976
HOEM,8/1/98,69.12447245,17.69862846,27.23,85.85,2976
HOEM,9/1/98,75.37245139,10.46320329,29.35,86.54,2880
HOEM,10/1/98,63.40977823,19.24077552,22.26,94.99,2976
HOEM,11/1/98,59.43143056,13.78887799,27.13,92.43,2880
HOEM,12/1/98,60.28262433,17.27899038,20.27,88.59,2976
HOEM,1/1/99,68.13935484,15.58042602,25.24,95.67,2976
HOEM,2/1/99,71.2871131,16.02098796,23.84,96.79,2688
HOEM,3/1/99,73.13259073,15.57314882,30.28,98.2,2976
HOEM,4/1/99,74.49899653,13.09807744,30.4,91.84,2880
HOEM,5/1/99,69.50815188,16.77551738,29.56,94.42,2976
HOEM,6/1/99,74.14428472,20.96076568,27.12,97.6,2880
HOEM,7/1/99,65.1353797,21.62970988,27.68,96.56,2976
HOEM,8/1/99,69.75352487,17.31015256,30.15,92.62,2976
HOEM,9/1/99,71.71382292,20.73427639,25.54,94.99,2880
HOEM,10/1/99,63.18382185,20.50298751,22.61,96.43,2975
HOEM,11/1/99,61.56143056,17.79853931,22.57,95.59,2880
HOEM,12/1/99,59.83133737,15.44840549,20.34,95.24,2976
HOEM,1/1/00,64.55647849,16.45504959,19.72,98.25,2976
HOEM,2/1/00,65.2396875,20.36981928,15.14,100,2784
HOEM,3/1/00,76.34061828,23.35470534,22.76,100,2976
HOEM,4/1/00,77.08440625,22.18238308,26.53,100,2880
HOEM,5/1/00,81.74764113,19.87810142,24.81,100,2976
HOEM,6/1/00,78.49229514,21.13313455,22.15,100,2880
HOEM,7/1/00,62.2971371,30.12005531,15.33,100,2976
HOEM,8/1/00,65.2843521,27.3909426,12.66,100,2948
HOEM,9/1/00,70.92431944,25.11716399,9.15,100,2880
HOEM,10/1/00,76.1646875,18.74302928,21.19,100,2976
HOEM,11/1/00,60.3806984,23.06597128,20.4,100,2878
HOEM,12/1/00,68.35211358,14.00872011,23.13,96.15,2976
HOEM,1/1/01,74.01858199,13.62721041,25.17,100,2976
HOEM,2/1/01,67.58502232,19.59555842,14.5,100,2688
HOEM,3/1/01,81.73232863,17.97757521,11.71,100,2976
HOEM,4/1/01,80.27819097,22.95568347,17.26,100,2880
HOEM,5/1/01,71.23380712,26.8581495,12.05,100,2976
HOEM,6/1/01,71.57419792,24.80584932,20.87,100,2880
HOEM,7/1/01,67.8739953,25.39956401,18.52,100,2976
HOEM,8/1/01,81.52642809,17.82402772,23.68,100,2976
HOEM,9/1/01,75.70593056,21.92353771,13.98,100,2880
HOEM,10/1/01,60.04096102,22.84830531,19.23,100,2976
HOEM,11/1/01,56.60452083,15.71192149,15.48,97.73,2880
HOEM,12/1/01,55.74273522,15.78604458,16.49,94.98,2976
HOEM,1/1/02,67.52330506,22.8600127,14.89,100,2947
HOEM,2/1/02,65.97237351,19.17098087,19.15,100,2688
HOEM,3/1/02,74.15400202,23.68303143,19.03,100,2976
HOEM,4/1/02,72.27886111,27.43731155,19.74,100,2880
HOEM,5/1/02,70.62527218,25.14308652,17.52,100,2976
HOEM,6/1/02,80.13062153,20.73627613,11.91,100,2880
HOEM,7/1/02,73.84786626,23.42959384,13.72,99.71,2976
HOEM,8/1/02,77.66797379,22.21836067,24.69,100,2976
HOEM,9/1/02,80.62712847,21.57510944,20.02,100,2880
HOEM,10/1/02,79.0584039,19.75277564,23.77,100,2976
HOEM,11/1/02,72.44382986,20.19684472,12.12,100,2880
HOEM,12/1/02,72.3033871,15.78142767,23.84,100,2976
HOEM,1/1/03,72.80008401,14.45885769,29.5,100,2976
HOEM,2/1/03,74.19394345,15.23849351,31.37,100,2688
HOEM,3/1/03,80.45223454,21.55889312,27.07,100,2976
HOEM,4/1/03,88.80088889,15.96580963,29.15,100,2880
HOEM,5/1/03,64.57375,28.36221947,14.75,100,2976
HOEM,6/1/03,79.56395139,22.11745362,13.84,100,2880
HOEM,7/1/03,62.79710013,25.60065351,19.32,100,2976
HOEM,8/1/03,82.20539987,18.07832518,13.39,100,2976
HOEM,9/1/03,75.74025694,24.73745907,10.77,100,2880
HOEM,10/1/03,59.7634375,24.34826293,14.46,100,2976
HOEM,11/1/03,62.36843403,15.75952239,24.41,100,2880
HOEM,12/1/03,62.9355914,18.98431444,19.23,100,2976
HOEM,1/1/04,74.5955395,12.08562698,32.31,98.54,2975
HOEM,2/1/04,71.78932112,16.35957124,30.32,100,2784
HOEM,3/1/04,85.61518817,14.41374219,36.16,100,2976
HOEM,4/1/04,84.41309722,19.21515922,25.76,100,2880
HOEM,5/1/04,71.64040995,24.26772868,19.68,100,2976
HOEM,6/1/04,67.90819444,28.54940749,11.98,100,2880
HOEM,7/1/04,73.51945228,22.59324235,10.15,98.51,2976
HOEM,8/1/04,71.77575605,26.39619873,12,100,2976
HOEM,9/1/04,85.40801389,18.88516309,21.59,100,2880
HOEM,10/1/04,70.86322245,20.88511849,20.81,100,2976
HOEM,11/1/04,60.10781944,18.41375998,19.23,98.99,2880
HOEM,12/1/04,66.78099462,16.82900011,25.12,99.94,2976
HOEM,1/1/05,75.75083669,13.08047791,23.35,100,2976
HOEM,2/1/05,72.79087426,19.94701525,21.49,100,2688
HOEM,3/1/05,78.51268481,19.68106282,28.87,100,2976
HOEM,4/1/05,90.79009375,13.2132164,28.21,100,2880
HOEM,5/1/05,76.63116599,25.62294122,23.4,100,2976
HOEM,6/1/05,78.11093056,24.01052555,18,100,2880
HOEM,7/1/05,79.70824261,22.4373928,17.92,100,2976
HOEM,8/1/05,77.11464046,23.66092218,15.87,100,2976
HOEM,9/1/05,73.21740972,21.62144209,13.01,100,2880
HOEM,10/1/05,65.4228797,24.69240096,12.95,100,2976
HOEM,11/1/05,65.08328125,17.56955451,24.03,98.2,2880
HOEM,12/1/05,69.07555444,16.21448069,24.05,100,2976
HOEM,1/1/06,70.10861223,14.88955493,16.34,100,2976
HOEM,2/1/06,74.0343564,16.94007884,26.36,100,2688
HOEM,3/1/06,80.79011089,18.81491889,22.36,100,2976
HOEM,4/1/06,81.58147917,17.2592519,23.55,100,2880
HOEM,5/1/06,76.10322581,21.3801747,11.25,100,2976
HOEM,6/1/06,69.81265625,23.67714279,22.98,100,2880
HOEM,7/1/06,78.83880712,16.87825386,18.55,100,2976
HOEM,8/1/06,72.2427789,25.5886053,20.29,100,2976
HOEM,9/1/06,73.09360417,25.00556723,26.37,100,2880
HOEM,10/1/06,76.31808468,17.5048504,21.43,100,2976
HOEM,11/1/06,65.27485417,14.90829433,25.8,100,2880
HOEM,12/1/06,63.00306452,17.30181258,20.23,95.49,2976
HOEM,1/1/07,61.51176411,15.17631668,19.82,100,2976
HOEM,2/1/07,74.88048735,17.18537113,29.72,100,2688
HOEM,3/1/07,77.53694892,21.85192072,14.49,100,2976
HOEM,4/1/07,75.93511458,22.67423442,20.88,100,2880
HOEM,5/1/07,72.60309476,25.57457387,12.39,100,2976
HOEM,6/1/07,65.49828472,25.41382223,11.17,100,2880
HOEM,7/1/07,62.82535618,26.83107316,11.74,100,2976
HOEM,8/1/07,63.95159274,25.70260402,15.42,100,2976
HOEM,9/1/07,65.81265972,26.26851948,16.7,100,2880
HOEM,10/1/07,75.97752352,19.96764601,13.81,100,2976
HOEM,11/1/07,67.5334375,16.55897953,22.28,100,2880
HOEM,12/1/07,59.21318992,19.30300439,15.74,96.53,2975
HOEM,1/1/08,66.21878696,13.39762029,24.87,95.86,2976
HOEM,2/1/08,67.01386853,16.88755814,26.57,97.48,2784
HOEM,3/1/08,81.2034543,17.9702916,15.42,100,2976
HOEM,4/1/08,75.25828472,23.81075292,16.94,100,2880
HOEM,5/1/08,72.32306452,23.73295437,20.81,100,2976
HOEM,6/1/08,67.86649653,26.49678684,19.22,100,2880
HOEM,7/1/08,73.76456317,22.00549709,12.42,98.43,2976
HOEM,8/1/08,76.91613911,17.97512836,16.88,98.08,2976
HOEM,9/1/08,54.28446528,27.1816223,15.29,100,2880
HOEM,10/1/08,78.11336022,18.21473376,19.13,100,2976
HOEM,11/1/08,63.3491875,19.58555147,11.11,100,2880
HOEM,12/1/08,59.54485215,15.91987001,15.4,93.59,2976
HOEM,1/1/09,69.28026882,14.25794895,24.39,94.65,2976
HOEM,2/1/09,75.21116815,13.5668712,28.65,100,2688
HOEM,3/1/09,82.93068212,15.66209268,23.41,100,2976
HOEM,4/1/09,72.82592708,22.79925677,25.85,100,2880
HOEM,5/1/09,71.67272177,23.0230089,16.6,100,2976
HOEM,6/1/09,66.98708681,25.37282583,15.52,100,2880
HOEM,7/1/09,74.23504032,24.56900415,17.78,100,2976
HOEM,8/1/09,74.07620632,22.90422598,21.98,100,2976
HOEM,9/1/09,61.42060069,26.58393123,8.78,96.95,2880
HOEM,10/1/09,71.02396169,18.91361576,17.99,100,2976
HOEM,11/1/09,60.76380903,18.82668152,17.78,100,2880
HOEM,12/1/09,69.30689516,13.84647994,27.49,97.26,2976
HOEM,1/1/10,73.72071909,11.44346688,30.66,97.93,2976
HOEM,2/1/10,74.03367188,16.77464761,20.25,100,2688
HOEM,3/1/10,82.65353495,13.36673605,30.49,100,2976
HOEM,4/1/10,76.82960069,22.48214944,19.4,100,2880
HOEM,5/1/10,76.56720094,21.6612446,25.7,100,2976
HOEM,6/1/10,74.3715,21.02983732,25.98,100,2880
HOEM,7/1/10,69.57490255,22.82858801,19.51,100,2976
HOEM,8/1/10,75.93437836,25.08751501,15.16,99.36,2976
HOEM,9/1/10,78.03076389,21.10186244,18.27,100,2880
HOEM,10/1/10,72.02885081,22.26068501,16.99,100,2976
HOEM,11/1/10,50.75735928,17.55871007,14.27,95.47,2878
HOEM,12/1/10,60.72242098,17.56048132,14.69,98.34,2879
HOEM,1/1/11,77.31066532,13.59681176,30.07,100,2976
HOEM,2/1/11,72.63546503,15.26509095,29.35,100,2688
HOEM,3/1/11,75.35873992,20.14750062,28.25,100,2976
HOEM,4/1/11,77.8728125,22.79669384,19.33,100,2880
HOEM,5/1/11,72.6678461,23.13393365,24.62,100,2976
HOEM,6/1/11,72.64930903,25.37298041,23.72,100,2880
HOEM,7/1/11,66.06280578,26.19399667,18.26,100,2976
HOEM,8/1/11,77.09507392,22.32199098,15.07,100,2976
HOEM,9/1/11,76.88834028,23.35410026,14.25,100,2880
HOEM,10/1/11,71.06109207,22.3146635,13.46,100,2976
HOEM,11/1/11,61.23601945,16.54934923,19.01,98.28,2879
HOEM,12/1/11,65.60562017,15.85705001,19.74,97.52,2975
HOEM,1/1/12,69.83822917,13.57371204,27.13,100,2976
HOEM,2/1/12,61.2777533,14.26893226,24.32,89.34,1135
HOEM,9/1/12,72.27527607,10.84457208,32.19,88.46,163
HOEM,10/1/12,73.16631848,15.12545265,28.59,100,1369
HOEM,11/1/12,61.97048628,15.87244505,24.4,100,2879
HOEM,12/1/12,68.0921707,13.61781023,22.3,98.89,2976
HOEM,1/1/13,72.31139785,16.01921545,18.26,100,2976
HOEM,2/1/13,71.34444196,18.31869869,26.31,100,2688
HOEM,3/1/13,84.53021841,17.3383298,28.3,100,2976
HOEM,4/1/13,79.65064583,18.68978276,20.4,100,2880
HOEM,5/1/13,76.45715726,22.73044944,26.74,100,2976
HOEM,6/1/13,77.54217708,21.06034521,22.2,100,2880
HOEM,7/1/13,81.32933804,19.6636581,26.93,100,2976
HOEM,8/1/13,74.95634745,23.49165832,14.88,100,2976
HOEM,9/1/13,70.47992361,27.20494395,12.95,100,2880
HOEM,10/1/13,80.3889031,20.45114775,26.46,100,2972
HOEM,11/1/13,59.77927083,19.63590069,21.79,100,2880
HOEM,12/1/13,64.50158266,16.35077395,21.05,100,2976
HOEM,1/1/14,65.04655914,17.05183683,23.6,100,2976
HOEM,2/1/14,64.6265997,20.20315304,18.64,97.75,2688
HOEM,3/1/14,73.60854503,22.57890737,20.79,100,2976
HOEM,4/1/14,77.93221875,25.42522979,15.15,100,2880
HOEM,5/1/14,80.60924395,23.90702283,21.97,100,2976
HOEM,6/1/14,78.13586111,21.97658464,24.19,100,2880
HOEM,7/1/14,77.68299731,19.47825216,22.81,100,2976
HOEM,8/1/14,68.67539651,26.6578319,21.99,100,2976
HOEM,9/1/14,67.56563889,28.88884124,11.95,100,2880
HOEM,10/1/14,64.67557796,25.14068401,24.66,100,2976
HOEM,11/1/14,68.05662102,14.59658657,18.52,97.09,2702
HOEM,12/1/14,65.57721997,13.24518958,26.08,95.82,2964
HOEM,1/1/15,64.21078583,18.21878944,10.73,98.65,2965
HOEM,2/1/15,60.45487351,22.70334319,15.8,99.24,2688
HOEM,3/1/15,77.02103831,16.76449584,21.03,100,2976
HOEM,4/1/15,82.08913194,19.29032031,20.16,100,2880
HOEM,5/1/15,78.64626008,18.01220974,14.68,100,2976
HOEM,6/1/15,61.44097222,23.52713462,11.25,97.92,2880
HOEM,7/1/15,68.49581989,25.65748583,9.14,100,2976
HOEM,8/1/15,67.33759409,27.29316854,10.37,100,2976
HOEM,9/1/15,66.67168403,25.42112631,12.25,100,2880
HOEM,10/1/15,66.14262097,22.91977541,8,98.99,2976
HOEM,11/1/15,56.10668058,20.16144695,11.99,99.99,2874
HOEM,12/1/15,63.44488239,20.45647504,6.76,100,2976
HOEM,1/1/16,64.21997648,20.09455747,7.27,96.53,2976
HOEM,2/1/16,61.0958477,21.59170218,13.75,100,2784
HOEM,3/1/16,75.48329637,20.99404678,17.85,100,2976
HOEM,4/1/16,70.65836111,22.04749479,24.71,100,2880
HOEM,5/1/16,68.33476142,28.06839591,7.9,100,2976
HOEM,6/1/16,81.21523611,19.05626284,20.23,100,2880
HOEM,7/1/16,80.56259409,17.67597374,14.99,100,2976
HOEM,8/1/16,70.6828629,24.40723329,9.71,100,2976
HOEM,9/1/16,78.08929861,22.95737771,17.58,100,2880
HOEM,10/1/16,74.59197297,19.64751351,19.93,100,2960
HOEM,11/1/16,68.69388194,20.1080862,8.67,100,2880
HOEM,12/1/16,67.48120968,17.26977289,13.65,100,2976
HOEM,1/1/17,66.81919691,15.1586768,16.77,100,2976
HOEM,2/1/17,64.07174851,16.82671141,17.82,100,2688
HOEM,3/1/17,81.55387097,21.19218634,17.22,100,2976
HOEM,4/1/17,57.81036458,25.11162236,15.82,100,2880
HOEM,5/1/17,66.1440625,28.41364066,14.03,100,2976
HOEM,6/1/17,68.35792014,25.23267892,17.5,100,2880
HOEM,7/1/17,61.95964046,28.05208756,10.94,100,2976
HOEM,8/1/17,63.94643817,25.7704957,9.01,100,2976
HOEM,9/1/17,67.05101389,25.69232875,12.68,100,2880
HOEM,10/1/17,71.74352151,23.9813246,13.57,100,2976
HOEM,11/1/17,68.11537147,20.23623894,9.24,100,2867
HOEM,12/1/17,68.2944437,15.65681233,18.77,100,2975
HOEM,1/1/18,69.07387824,15.41211419,21.49,100,2973
HOEM,2/1/18,67.90959821,20.00970255,14.69,100,2688
HOEM,3/1/18,77.12031922,23.42793519,23.24,100,2976
HOEM,4/1/18,67.46080208,28.26005572,8.04,100,2880
HOEM,5/1/18,74.14199261,21.5989417,16.68,100,2976
HOEM,6/1/18,65.29016319,29.32121355,19.61,100,2880
HOEM,7/1/18,64.84066868,28.23922334,9.84,100,2976
HOEM,8/1/18,74.91121976,23.71002041,7.05,100,2976
HOEM,9/1/18,71.55145486,26.72322214,15.17,100,2880
HOEM,10/1/18,62.60740255,26.83582027,14.1,100,2976
HOEM,11/1/18,59.54080556,20.19477643,14.76,100,2880
HOEM,12/1/18,57.13335447,18.33122208,13.96,97.34,1577